EDT,Max TemperatureF,Mean TemperatureF,Min TemperatureF,Max Dew PointF,MeanDew PointF,Min DewpointF,Max Humidity, Mean Humidity, Min Humidity, Max Sea Level PressureIn, Mean Sea Level PressureIn, Min Sea Level PressureIn, Max VisibilityMiles, Mean VisibilityMiles, Min VisibilityMiles, Max Wind SpeedMPH, Mean Wind SpeedMPH, Max Gust SpeedMPH,PrecipitationIn, CloudCover, Events, WindDirDegrees
2013-5-1,81,66,51,59,54,52,100,65,35,30.20,30.16,30.08,10,10,8,13,4,,0.00,0,Fog,83
2013-5-2,73,65,57,56,52,49,84,62,48,30.27,30.19,30.11,10,10,10,15,5,,0.00,5,,110
2013-5-3,76,67,58,55,50,36,87,55,32,30.12,30.05,29.99,10,10,10,17,7,25,0.00,4,Rain,122
2013-5-4,70,64,57,47,44,39,62,50,40,30.04,30.01,29.96,10,10,10,16,12,23,0.00,6,,104
2013-5-5,64,59,54,52,44,39,77,55,39,30.01,29.98,29.94,10,10,10,15,8,21,0.00,8,Rain,85
2013-5-6,63,58,54,58,53,49,94,82,72,30.00,29.97,29.93,10,10,7,14,6,21,0.18,8,Rain,75
2013-5-7,73,64,56,61,56,55,97,79,56,30.01,29.97,29.93,10,10,7,14,6,21,0.15,7,Rain-Thunderstorm,44
2013-5-8,73,62,51,57,55,51,100,74,50,30.01,29.97,29.94,10,10,6,9,3,,0.00,5,Fog-Rain-Thunderstorm,26
2013-5-9,79,64,50,61,56,50,100,76,41,30.03,29.99,29.95,10,9,1,10,3,22,0.00,5,Fog-Rain,203
2013-5-10,70,64,60,64,61,57,100,93,73,29.98,29.88,29.81,10,8,1,25,8,36,0.86,7,Rain-Thunderstorm,198
2013-5-11,58,52,44,55,47,39,96,84,67,30.02,29.90,29.86,10,9,2,23,9,34,0.01,8,Rain,283
2013-5-12,54,44,36,38,32,28,95,59,37,30.14,30.07,30.02,10,10,10,20,8,24,0.00,3,,272
2013-5-13,59,48,36,35,31,25,87,53,29,30.20,30.16,30.13,10,10,10,13,4,23,0.00,3,,308
2013-5-14,79,60,43,57,45,34,72,54,40,30.16,29.98,29.83,10,10,10,22,8,30,0.00,3,,184
2013-5-15,86,74,63,60,58,57,78,55,39,29.86,29.83,29.79,10,10,10,23,14,31,0.00,3,,219
2013-5-16,77,68,62,67,62,57,100,83,53,30.00,29.90,29.83,10,9,3,16,8,24,0.38,7,Rain-Thunderstorm,224
2013-5-17,81,69,57,70,62,58,100,86,46,30.09,30.05,30.00,10,6,0,20,4,22,0.15,5,Fog-Rain-Thunderstorm,155
2013-5-18,77,69,61,66,63,61,100,84,58,30.10,30.05,29.99,10,8,6,10,3,,0.03,7,Rain,28
2013-5-19,82,71,60,68,64,60,100,83,54,30.03,29.99,29.93,10,8,1,8,3,,0.00,4,Fog-Rain,145
2013-5-20,84,74,66,70,66,62,100,76,52,30.02,29.95,29.89,10,9,3,14,6,21,0.00,4,Fog-Rain,177
2013-5-21,84,75,67,66,61,58,80,60,42,29.94,29.86,29.80,10,10,10,18,11,28,0.00,6,,192
2013-5-22,79,71,64,65,62,59,94,75,52,29.84,29.79,29.74,10,10,10,16,10,26,0.02,6,Rain-Thunderstorm,196
2013-5-23,69,60,48,63,56,41,100,79,59,30.12,29.88,29.81,10,10,5,21,10,30,0.14,7,Rain,245
2013-5-24,63,54,46,42,36,30,78,54,28,30.34,30.26,30.11,10,10,10,16,11,22,0.00,4,,351
2013-5-25,66,54,42,44,38,32,82,54,29,30.42,30.34,30.25,10,10,10,7,2,,0.00,5,,274
2013-5-26,69,56,45,43,39,33,78,49,33,30.34,30.28,30.22,10,10,10,7,3,,0.00,4,,54
2013-5-27,78,64,51,58,51,39,93,63,48,30.23,30.12,29.96,10,10,3,15,6,22,0.19,6,Rain,112
2013-5-28,83,74,66,65,60,56,84,63,44,30.01,29.98,29.93,10,10,10,23,10,31,0.00,7,Rain,200
2013-5-29,86,77,68,62,59,56,70,55,36,30.07,30.04,30.00,10,10,10,20,11,25,0.00,4,,197
2013-5-30,87,76,66,66,64,63,88,64,47,30.15,30.08,30.01,10,10,10,16,7,23,0.00,4,,167
2013-5-31,84,76,68,68,66,62,99,80,55,30.06,30.01,29.96,10,9,2,24,12,36,0.45,6,Rain-Thunderstorm,188